RH
98 97 98 95 88 80 76 73 71 70 68 62 59 57 53 44 44 43 44 51 48 42 39 34 30 28 33 36 38 39 42 42 42 42 45 43 45 42 41 39 45 44 52 54 53 51 45 30 34 36 32 30 30 32
96 95 92 88 83 79 75 76 77 79 70 61 58 56 45 40 42 42 56 63 59 48 41 36 37 34 34 32 33 41 41 39 40 44 42 43 49 48 44 43 42 42 40 43 40 37 31 32 33 33 34 35 36 39
95 92 87 82 78 75 75 77 78 76 68 61 60 59 42 38 42 50 57 72 57 55 54 51 52 51 47 45 41 38 41 41 38 37 41 45 46 43 46 45 42 40 40 40 39 34 35 36 37 38 39 42 44 47
87 82 77 74 74 73 75 79 79 77 69 62 57 52 39 39 45 61 70 73 63 50 57 60 57 55 52 47 43 43 40 41 41 40 42 45 42 43 46 44 45 40 41 42 42 39 40 39 40 42 44 46 47 50
79 75 72 72 72 75 74 78 78 74 73 71 60 43 40 55 76 84 86 72 63 53 53 56 54 54 53 50 48 46 44 42 42 44 48 48 48 51 55 52 47 41 43 48 48 42 44 45 48 51 53 57 61 62
79 76 73 70 70 72 73 77 80 74 76 75 65 52 57 70 78 81 78 69 60 52 47 61 57 56 54 51 49 48 48 48 49 51 55 53 50 51 59 56 45 47 48 48 49 54 57 60 62 63 64 65 65 66
78 78 76 77 74 79 76 74 88 77 76 73 68 62 62 67 71 70 64 64 56 51 47 53 53 52 52 52 52 53 53 52 53 55 55 55 55 56 60 61 56 55 56 60 64 65 66 66 66 66 66 67 71 77
88 82 79 82 85 87 82 77 78 74 76 73 75 72 69 65 60 60 57 54 51 46 43 47 48 45 47 48 49 49 50 50 53 56 57 58 62 64 68 64 63 61 61 64 65 67 69 71 72 74 79 81 84 88
87 84 77 77 84 89 87 83 80 77 76 74 72 69 65 61 58 59 57 54 48 43 45 46 47 56 57 58 59 59 59 61 61 64 65 65 68 69 65 63 63 63 65 67 72 77 82 84 84 87 87 90 94 95
90 95 88 84 85 87 91 87 85 82 79 77 74 70 70 71 68 64 60 59 57 58 57 61 65 67 68 71 70 67 63 64 61 62 64 64 67 65 65 67 71 79 82 83 85 87 89 90 91 90 90 91 91 93
91 93 94 95 96 95 90 90 85 83 81 79 77 79 81 78 75 74 77 78 77 77 76 76 76 75 74 72 71 68 67 63 63 62 64 67 68 69 75 81 86 89 89 89 89 89 88 89 89 89 90 89 89 89
96 95 95 94 93 91 90 95 91 87 85 82 81 82 80 78 78 82 85 83 82 82 80 79 77 73 70 67 65 65 65 66 66 69 76 78 79 85 90 91 93 92 89 87 86 86 86 85 84 82 83 82 79 77
99 98 95 94 94 91 93 89 90 91 90 87 87 86 86 87 88 85 82 77 74 72 71 70 70 69 68 66 70 74 82 85 85 89 92 90 91 94 93 92 91 91 88 84 83 83 83 81 80 75 71 69 66 62
98 98 98 97 96 95 93 92 88 84 81 79 77 75 72 78 77 74 75 77 78 78 80 82 83 84 85 88 93 93 93 93 94 91 89 91 94 95 94 92 90 86 84 83 83 82 78 72 66 63 59 56 53 50
83 87 93 97 98 99 98 97 97 94 92 92 86 92 90 86 87 87 87 86 83 83 85 87 87 89 92 94 96 97 98 96 93 91 93 96 97 96 92 91 89 87 87 86 80 74 68 62 57 54 51 46 44 43
72 76 73 72 80 91 96 97 98 97 98 98 96 96 94 94 94 94 94 94 96 98 99 98 97 97 96 97 96 95 94 92 91 93 94 92 90 89 89 90 89 84 76 70 65 62 58 52 45 43 43 40 38 37
53 53 57 65 69 69 74 78 81 89 95 96 97 98 98 97 98 98 98 98 98 98 97 95 93 92 93 92 90 87 85 86 89 87 85 83 82 80 81 78 72 67 65 62 54 46 45 42 40 39 37 35 36 36
39 43 46 47 51 58 60 61 64 67 72 77 79 84 87 85 87 88 89 90 89 89 89 87 83 84 83 81 81 80 79 79 78 76 75 73 74 70 62 58 55 50 44 41 42 43 43 42 40 37 36 36 36 35
27 27 31 34 35 35 41 49 52 59 67 71 74 76 77 79 79 78 76 75 72 71 72 72 73 71 71 70 68 66 63 60 59 57 58 57 55 53 51 51 52 49 48 48 48 45 43 43 42 42 42 41 40 38
15 18 18 20 22 27 35 41 42 43 51 53 55 59 62 63 65 66 65 64 60 58 56 55 55 57 55 56 56 55 55 52 54 56 55 54 53 54 57 57 57 56 51 47 48 50 52 53 51 48 47 44 36 29
15 10 10 12 15 20 28 33 34 39 42 45 49 49 49 50 52 54 55 55 54 54 55 56 57 57 56 53 52 55 57 56 58 59 57 59 62 62 65 65 60 54 52 52 56 59 59 57 53 48 40 29 25 25
10 10 10 13 18 24 30 34 37 39 40 42 42 45 46 49 51 54 55 54 54 57 58 59 60 60 60 61 62 62 64 64 64 63 64 65 67 67 64 62 61 63 65 65 65 64 60 54 46 33 27 26 25 24
11 11 14 18 22 29 38 34 36 38 41 45 45 46 46 47 48 49 51 52 55 60 62 64 65 66 67 69 72 71 73 73 70 68 66 67 67 65 65 69 71 71 70 69 67 61 52 39 32 30 28 26 25 26
13 15 20 25 28 34 34 36 39 42 45 48 50 52 52 50 51 53 55 56 58 60 63 67 71 75 78 79 78 79 78 76 76 78 77 76 77 79 79 77 74 74 72 68 59 45 36 34 32 29 27 27 29 30
18 27 27 33 34 37 40 44 46 50 55 58 56 56 60 61 62 62 63 65 69 72 77 78 80 83 86 87 85 84 84 86 88 88 87 86 84 80 80 81 77 72 62 48 41 38 35 32 29 29 30 30 30 32
37 44 46 52 56 56 57 58 59 61 62 65 72 74 73 71 74 73 70 74 77 79 83 87 88 90 91 92 93 95 95 92 90 87 86 86 87 85 78 68 57 47 42 39 35 32 29 29 30 31 31 32 33 36
54 60 64 65 66 67 68 69 71 71 74 78 85 85 86 84 83 88 89 88 87 90 92 97 98 98 98 98 97 95 93 92 91 91 89 83 72 60 50 45 42 39 36 33 30 30 30 31 31 31 31 35 38 40
68 69 70 72 73 74 76 78 80 82 85 89 91 92 93 94 94 95 97 98 98 97 98 98 96 96 95 95 93 92 89 84 77 67 56 49 45 43 41 41 39 35 32 31 30 31 33 32 31 32 36 40 43 42
73 74 74 76 76 78 80 82 86 89 90 93 95 96 97 96 97 96 96 96 96 95 94 93 91 89 85 81 76 69 58 48 43 42 41 42 44 45 43 38 33 30 30 31 33 32 32 33 36 40 43 45 44 43
71 72 72 72 73 74 75 79 81 82 85 90 91 90 90 90 89 86 84 81 77 73 71 68 67 64 56 48 43 41 42 44 46 47 47 47 44 38 33 29 30 31 31 30 31 35 38 42 46 48 47 45 45 48
55 53 52 51 53 54 54 54 58 61 64 67 69 70 69 66 61 58 58 58 58 56 55 53 50 48 47 47 47 47 48 50 50 48 44 40 36 32 30 31 32 34 35 37 41 43 47 49 49 47 44 44 46 50
45 46 46 48 49 48 46 43 40 42 46 47 48 49 50 52 53 53 56 57 59 57 56 55 53 53 50 51 52 53 53 50 46 40 36 34 33 34 36 38 40 42 44 46 49 51 50 50 48 45 44 45 49 53
56 54 52 48 44 43 42 38 39 43 46 47 49 53 56 59 62 62 62 64 64 63 62 59 58 58 58 57 54 50 47 41 36 34 35 38 40 41 43 45 46 48 50 51 52 52 51 48 45 44 45 46 48 51